[[{"header":{"parameterUnit":"m.s-1","parameterCategory":1,"la1":30.2991,"la2":30.254,"lo1":-89.0895,"lo2":-89.0444,"dy":0.0017,"dx":0.0017,"nx":28,"ny":28,"refTime":"2024-03-25T09:00:00:Z","depth":0,"parameterNumber":2,"parameterNumberName":"U-component_of_WINDS"},"data":[0,0,0,0,0,0,0,0,0,0,0,0,0,0,0,0,0,0,0,0,0,0,0,0,0,0,0,0,0,0,0,0,0,0,0,0,0,0,0,0,0,0,0,0,0,0,0,0,0,0,0,0,0,0,0,0,0,0,1.6488,1.6488,0,1.6552,1.6553,1.6553,1.6568,1.6567,1.6567,1.6566,1.6636,1.6638,1.6641,0,0,0,0,0,0,0,0,0,0,0,0,0,1.6383,1.6385,1.6488,1.6488,1.6489,1.6552,1.6553,1.6554,1.6568,1.6567,1.6566,1.6566,1.6635,1.6638,1.6641,0,0,0,0,0,0,0,0,0,0,0,0,0,1.6436,1.6385,1.6488,1.6504,1.6506,1.6552,1.6553,1.6554,1.6568,1.6567,1.6566,1.6566,1.6634,1.6638,1.6641,1.6677,0,0,1.6652,1.6653,0,0,0,0,0,0,0,0,1.6433,1.644,1.6501,1.6503,1.6505,1.6551,1.6541,1.6595,1.6568,1.6544,1.6566,1.6565,1.6609,1.6614,1.6628,1.668,1.6683,1.6652,1.6654,1.6656,1.6657,0,0,0,0,0,0,0,1.6429,1.6437,1.6513,1.6501,1.6504,1.651,1.6516,1.6552,1.658,1.6546,1.6547,1.6555,1.661,1.6624,1.663,1.6684,1.6652,1.6655,1.6657,1.6658,1.6772,1.6773,0,0,0,0,0,0,1.6422,1.6434,1.6511,1.6515,1.6466,1.6512,1.652,1.6537,1.6579,1.6585,1.6555,1.6555,1.6619,1.6626,1.6632,1.6678,1.6656,1.6659,1.6661,1.6771,1.6772,1.6773,0,0,0,0,0,0,1.642,1.6429,1.6509,1.6475,1.6485,1.6515,1.6534,1.6539,1.6553,1.6586,1.6592,1.6565,1.6619,1.6627,1.6666,1.6681,1.666,1.6664,1.677,1.6771,1.6772,1.6769,0,0,0,0,0,0,1.6417,1.6428,1.644,1.6475,1.6487,1.6539,1.6535,1.654,1.6559,1.6559,1.6596,1.6602,1.6619,1.6661,1.6669,1.6685,1.6666,1.6768,1.677,1.6772,1.6768,1.677,1.6772,0,0,0,0,0,1.6413,1.6437,1.6441,1.645,1.6503,1.654,1.6547,1.6565,1.656,1.6574,1.6595,1.6601,1.6678,1.6664,1.6674,1.6691,1.6768,1.677,1.6772,1.6767,1.677,1.6772,0,0,0,0,0,0,1.6404,1.6442,1.6446,1.6482,1.6508,1.6542,1.656,1.6567,1.6595,1.6595,1.6617,1.6625,1.6663,1.6681,1.6666,1.673,1.6723,1.6727,1.6716,1.6719,1.6721,1.6716,1.6669,0,0,0,0,0,1.6406,1.6432,1.6464,1.6493,1.6505,1.653,1.6547,1.6559,1.6587,1.6598,1.6622,1.665,1.6681,1.6701,1.6731,1.6771,1.6781,1.6788,1.679,1.6792,1.6795,1.682,1.6824,1.678,1.678,1.678,0,0,1.6411,1.6435,1.645,1.6492,1.6513,1.6541,1.6539,1.6568,1.659,1.6603,1.6641,1.666,1.6693,1.6733,1.6752,1.6749,1.681,1.6794,1.6795,1.6798,1.6823,1.6827,1.6831,1.6781,1.6781,1.6781,0,0,1.6434,1.6454,1.6481,1.6502,1.6534,1.6551,1.6558,1.6592,1.6605,1.6643,1.6654,1.6681,1.6732,1.6756,1.6775,1.681,1.6817,1.6819,1.683,1.6854,1.6858,1.6861,1.6875,1.6879,1.6823,1.6823,1.6823,0,1.6436,1.6477,1.6494,1.6523,1.6542,1.6554,1.6583,1.6604,1.6644,1.6658,1.6655,1.6721,1.6745,1.6791,1.68,1.6814,1.6824,1.6815,1.6855,1.6859,1.6862,1.6876,1.6881,1.6823,1.6823,1.6823,1.6823,0,1.6479,1.6507,1.6526,1.6564,1.6585,1.6614,1.6637,1.6657,1.6667,1.6685,1.6726,1.6754,1.6791,1.6803,1.6813,1.6852,1.685,1.6851,1.6844,1.6866,1.688,1.6885,1.6823,1.6823,1.6823,1.6823,0,0,1.6497,1.6545,1.6552,1.657,1.6607,1.6631,1.6661,1.6696,1.6714,1.6742,1.677,1.6814,1.6816,1.6837,1.6851,1.6872,1.69,1.6871,1.6872,1.6876,1.6947,1.6946,1.6952,1.6905,1.6906,1.6907,1.6944,0,1.6526,1.6578,1.6596,1.6641,1.6669,1.6682,1.6709,1.6736,1.6754,1.6782,1.6803,1.6835,1.6833,1.6847,1.6868,1.6892,1.6915,1.6889,1.6933,1.6934,1.6924,1.6958,1.6958,1.6992,1.695,1.695,1.6951,0,1.6565,1.6593,1.6641,1.6676,1.6689,1.6712,1.6747,1.6773,1.6805,1.6817,1.6842,1.6854,1.6889,1.6881,1.6931,1.6913,1.6933,1.6947,1.6949,1.6954,1.6944,1.6966,1.7003,1.7008,1.6959,1.6958,1.6958,0,1.6575,1.6625,1.6661,1.6676,1.6718,1.6734,1.6753,1.6784,1.6805,1.6836,1.685,1.6885,1.6905,1.6933,1.6956,1.6947,1.7004,1.6997,1.7017,1.7017,1.7028,1.7027,1.707,1.704,1.704,1.7039,1.7039,0,1.6605,1.6634,1.6666,1.6688,1.6721,1.6742,1.6776,1.6795,1.6823,1.6851,1.6865,1.6891,1.6919,1.6949,1.6968,1.7007,1.7016,1.7028,1.7033,1.7027,1.7026,1.704,1.7039,1.7041,1.7041,1.704,1.704,0,1.6622,1.6644,1.6684,1.672,1.673,1.6754,1.6786,1.6809,1.6829,1.6864,1.6873,1.6904,1.6941,1.6966,1.7014,1.7026,1.707,1.7073,1.7058,1.7061,1.7079,1.7077,1.7133,1.7142,1.7105,1.7105,1.7105,0,1.664,1.6662,1.6702,1.672,1.6739,1.6769,1.679,1.6813,1.6835,1.6874,1.6893,1.693,1.6961,1.702,1.7048,1.7085,1.7091,1.7108,1.7096,1.7091,1.7093,1.7091,1.7094,1.711,1.711,1.711,1.711,0,1.667,1.668,1.6709,1.6743,1.6768,1.6796,1.6824,1.6839,1.6867,1.6892,1.6929,1.6953,1.7001,1.7039,1.7079,1.7101,1.7111,1.7114,1.712,1.7115,1.7106,1.7112,1.7064,1.7112,1.7112,1.7112,1.7112,1.7112,1.6689,1.671,1.6741,1.6774,1.6797,1.6824,1.6848,1.687,1.6901,1.6941,1.6954,1.6993,1.7027,1.7082,1.7104,1.7137,1.7135,1.7145,1.7147,1.7149,1.715,1.71,1.7144,1.7144,1.7144,1.7144,1.7144,0,1.672,1.6741,1.6771,1.681,1.6837,1.6843,1.6875,1.6897,1.6931,1.6961,1.6992,1.7036,1.7073,1.7105,1.7144,1.7164,1.717,1.7174,1.7173,1.7178,1.7148,1.7139,1.7168,1.7168,1.7168,1.7168,1.7168,1.7168,1.674,1.6777,1.6791,1.6841,1.6862,1.6899,1.6918,1.6943,1.6968,1.7016,1.7046,1.7066,1.7098,1.714,1.7175,1.7184,1.7198,1.7201,1.7211,1.7183,1.718,1.7177,1.7169,1.7204,1.7204,1.7238,1.7239,1.7239]},{"header":{"parameterUnit":"m.s-1","parameterCategory":1,"la1":30.2991,"la2":30.254,"lo1":-89.0895,"lo2":-89.0444,"dy":0.0017,"dx":0.0017,"nx":28,"ny":28,"refTime":"2024-03-25T09:00:00:Z","depth":0,"parameterNumber":3,"parameterNumberName":"V-component_of_WINDS"},"data":[0,0,0,0,0,0,0,0,0,0,0,0,0,0,0,0,0,0,0,0,0,0,0,0,0,0,0,0,0,0,0,0,0,0,0,0,0,0,0,0,0,0,0,0,0,0,0,0,0,0,0,0,0,0,0,0,0,0,0.883,0.883,0,0.881,0.881,0.8809,0.8774,0.8774,0.8773,0.8772,0.8751,0.8751,0.8751,0,0,0,0,0,0,0,0,0,0,0,0,0,0.8836,0.8836,0.883,0.883,0.8829,0.881,0.881,0.8809,0.8774,0.8774,0.8773,0.8772,0.8751,0.8751,0.8751,0,0,0,0,0,0,0,0,0,0,0,0,0,0.8826,0.8836,0.883,0.881,0.8808,0.881,0.881,0.8809,0.8775,0.8774,0.8773,0.8772,0.8751,0.8751,0.8751,0.8771,0,0,0.8751,0.8751,0,0,0,0,0,0,0,0,0.8827,0.8826,0.8813,0.8811,0.8809,0.8794,0.8804,0.8796,0.8775,0.8787,0.8772,0.8771,0.8766,0.8764,0.8763,0.877,0.8769,0.8751,0.8751,0.8751,0.8751,0,0,0,0,0,0,0,0.8827,0.8827,0.8822,0.8813,0.881,0.8801,0.8798,0.8802,0.8782,0.8786,0.8783,0.8782,0.8764,0.8763,0.8762,0.8769,0.8751,0.8751,0.8751,0.8751,0.8788,0.8789,0,0,0,0,0,0,0.8831,0.8827,0.8822,0.8821,0.8816,0.8802,0.8799,0.8799,0.8782,0.8778,0.8782,0.878,0.8763,0.8762,0.8761,0.8781,0.8751,0.8751,0.8751,0.8787,0.8789,0.879,0,0,0,0,0,0,0.8832,0.8831,0.8823,0.8824,0.8822,0.8802,0.8803,0.88,0.8798,0.8779,0.8775,0.8785,0.8762,0.8761,0.8768,0.878,0.8751,0.8751,0.8786,0.8788,0.8789,0.8824,0,0,0,0,0,0,0.8832,0.8832,0.884,0.8824,0.8822,0.8832,0.8804,0.88,0.8798,0.8795,0.878,0.8777,0.8762,0.8768,0.8768,0.878,0.8751,0.8785,0.8787,0.8789,0.8821,0.8826,0.883,0,0,0,0,0,0.8832,0.885,0.884,0.884,0.8832,0.8832,0.8831,0.8813,0.88,0.8807,0.8794,0.8777,0.8779,0.8769,0.8769,0.8781,0.8784,0.8786,0.8788,0.8819,0.8825,0.883,0,0,0,0,0,0,0.8868,0.8848,0.8836,0.885,0.8843,0.8826,0.8835,0.882,0.8817,0.8814,0.8791,0.8788,0.8798,0.879,0.8779,0.8798,0.8779,0.8781,0.8803,0.8808,0.8812,0.8813,0.8751,0,0,0,0,0,0.8877,0.888,0.8862,0.8876,0.8873,0.8855,0.8855,0.8841,0.8833,0.883,0.8818,0.881,0.8808,0.8808,0.8806,0.882,0.8816,0.8828,0.8833,0.8836,0.8838,0.8843,0.8848,0.8797,0.8797,0.8797,0,0,0.8897,0.8887,0.889,0.8883,0.8876,0.8878,0.8853,0.8857,0.8858,0.883,0.8836,0.8827,0.8816,0.8827,0.8831,0.8821,0.8851,0.8839,0.8842,0.8842,0.8846,0.885,0.8855,0.8798,0.8798,0.8798,0,0,0.8933,0.8927,0.8936,0.893,0.8919,0.8907,0.8909,0.8894,0.8887,0.8892,0.8871,0.8872,0.887,0.8863,0.8859,0.8891,0.8874,0.8891,0.8914,0.8919,0.8923,0.8926,0.8935,0.8939,0.8893,0.8893,0.8893,0,0.8959,0.8962,0.8943,0.8948,0.8945,0.892,0.8929,0.8923,0.8913,0.8911,0.89,0.8896,0.8887,0.8894,0.8902,0.8901,0.8901,0.8892,0.8924,0.8927,0.893,0.8939,0.8942,0.8895,0.8895,0.8895,0.8895,0,0.8993,0.8995,0.9004,0.8994,0.8992,0.8999,0.898,0.898,0.8967,0.8955,0.896,0.8949,0.8943,0.8944,0.8931,0.8948,0.8942,0.8928,0.8908,0.8937,0.8945,0.8948,0.8898,0.8897,0.8897,0.8896,0,0,0.9051,0.903,0.9033,0.9027,0.9013,0.9014,0.9019,0.9014,0.9013,0.9007,0.9009,0.9008,0.8994,0.8989,0.8976,0.898,0.9003,0.8965,0.8964,0.8971,0.9019,0.9029,0.9033,0.8993,0.8994,0.8994,0.9019,0,0.9083,0.909,0.9073,0.9085,0.9085,0.9061,0.9065,0.9057,0.9046,0.9044,0.9032,0.903,0.9013,0.901,0.9013,0.9,0.9013,0.8998,0.8993,0.8993,0.8995,0.9038,0.9048,0.9073,0.9023,0.9023,0.9024,0,0.9121,0.9116,0.9127,0.9111,0.9111,0.9115,0.9107,0.9106,0.9095,0.9087,0.9081,0.9065,0.9067,0.9049,0.9051,0.9041,0.9038,0.9031,0.9032,0.9029,0.9009,0.9034,0.908,0.9084,0.9028,0.9028,0.9028,0,0.916,0.9156,0.9161,0.9158,0.9139,0.9142,0.9135,0.9123,0.912,0.9113,0.911,0.9104,0.91,0.9095,0.9077,0.9066,0.908,0.9061,0.9071,0.9072,0.9074,0.9074,0.9119,0.9075,0.9075,0.9075,0.9075,0,0.9196,0.9204,0.9178,0.9182,0.9189,0.9168,0.9176,0.9166,0.9155,0.9155,0.9134,0.9135,0.9111,0.9109,0.9094,0.9097,0.9096,0.9087,0.9083,0.9088,0.9089,0.9085,0.9082,0.9076,0.9076,0.9076,0.9076,0,0.924,0.9224,0.9228,0.921,0.9206,0.9212,0.9196,0.9197,0.9185,0.9185,0.9184,0.9164,0.9159,0.9141,0.9132,0.9122,0.9129,0.9122,0.9133,0.9129,0.914,0.9139,0.9182,0.9186,0.9142,0.9143,0.9143,0,0.9264,0.9269,0.9251,0.925,0.9243,0.9242,0.9238,0.9218,0.9215,0.9202,0.9205,0.9199,0.9193,0.9187,0.9171,0.9163,0.9155,0.917,0.9153,0.9158,0.9153,0.9152,0.9151,0.9174,0.9174,0.9175,0.9175,0,0.9307,0.9298,0.9294,0.9287,0.9284,0.9277,0.9269,0.9269,0.9247,0.9244,0.924,0.9235,0.9225,0.9219,0.9209,0.9199,0.9183,0.9181,0.9182,0.9187,0.9192,0.9187,0.9141,0.918,0.9179,0.9179,0.9179,0.9178,0.934,0.9342,0.933,0.9326,0.9318,0.9311,0.9311,0.9298,0.9294,0.9285,0.9273,0.9269,0.9256,0.9241,0.9233,0.9229,0.922,0.9223,0.9223,0.9224,0.9225,0.9194,0.9227,0.9227,0.9227,0.9226,0.9226,0,0.938,0.9371,0.9367,0.9357,0.9353,0.9339,0.9329,0.9326,0.9323,0.9313,0.9307,0.9301,0.9294,0.9277,0.9268,0.9268,0.926,0.9266,0.9265,0.9263,0.9235,0.9233,0.9273,0.9273,0.9273,0.9273,0.9273,0.9273,0.94,0.9403,0.9393,0.9391,0.9382,0.9378,0.9373,0.9366,0.9357,0.9351,0.9345,0.9334,0.9321,0.9311,0.9303,0.9298,0.9295,0.9303,0.9296,0.927,0.9265,0.9261,0.9259,0.9303,0.9303,0.9324,0.9324,0.9324]}]]